ONEWEB-0245 (48778 NORAD) Tracking and Keplerian Element Data

This shows tracking and keplerian element data for the satellite.

Feedback or suggestion? Click here.




ElementValue
Catalog48778
NameONEWEB-0245
Epoch Orbit354
Epoch Day214.91667824
Epoch Year2021
RAAN254.7288
Inclination87.5937
Eccentricity0.0012766
Argument of Perigee39.9403
Mean Anonmoly21.6089
Mean Motion14.35371868
Decay Rate-0.01408385
L11 48778U 21045M 21214.91667824 -.01408385 00000-0 -52494+0 0 9993
L22 48778 87.5937 254.7288 0012766 39.9403 21.6089 14.35371868 3545

Live tracking and technical data element details for ONEWEB-0245 (NORAD 48778). ONEWEB-0245 can be tracked NOW for your location showing map with azimuth and elevation plus other details from your city location.

Track the satellite on the map from your city or location and see movement details for azimuth, elevation, latitude, longitude, range, height, and movement on the map or in text.







IsCatalogInMostPopularTable: catalog: 48778, numindb: 17
Update: records affected: 1



GetName: 48778 ONEWEB-0245

Hit Count: updated at: Tue, 03 Aug 2021 20:25:31 GMT